Year,Month,Day,Hour,Minute,Value (Times are PST for temperature in C)
2013,06,10,00,00,10.00
2013,06,10,00,01,9.90
2013,06,10,00,02,9.90
2013,06,10,00,03,9.90
2013,06,10,00,04,9.90
2013,06,10,00,05,9.90
2013,06,10,00,06,9.90
2013,06,10,00,07,9.90
2013,06,10,00,08,10.00
2013,06,10,00,09,10.00
2013,06,10,00,10,10.00
2013,06,10,00,11,10.00
2013,06,10,00,12,10.10
2013,06,10,00,13,10.10
2013,06,10,00,14,10.10
2013,06,10,00,15,10.10
2013,06,10,00,16,10.10
2013,06,10,00,17,10.20
2013,06,10,00,18,10.20
2013,06,10,00,19,10.20
2013,06,10,00,20,10.30
2013,06,10,00,21,10.30
2013,06,10,00,22,10.40
2013,06,10,00,23,10.40
2013,06,10,00,24,10.50
2013,06,10,00,25,10.60
2013,06,10,00,26,10.60
2013,06,10,00,27,10.70
2013,06,10,00,28,10.70
2013,06,10,00,29,10.80
2013,06,10,00,30,10.80
2013,06,10,00,31,10.90
2013,06,10,00,32,10.90
2013,06,10,00,33,11.00
2013,06,10,00,34,11.00
2013,06,10,00,35,11.10
2013,06,10,00,36,11.20
2013,06,10,00,37,11.20
2013,06,10,00,38,11.30
2013,06,10,00,39,11.30
2013,06,10,00,40,11.30
2013,06,10,00,41,11.40
2013,06,10,00,42,11.40
2013,06,10,00,43,11.50
2013,06,10,00,44,11.50
2013,06,10,00,45,11.60
2013,06,10,00,46,11.60
2013,06,10,00,47,11.60
2013,06,10,00,48,11.60
2013,06,10,00,49,11.60
2013,06,10,00,50,11.60
2013,06,10,00,51,11.70
2013,06,10,00,52,11.70
2013,06,10,00,53,11.70
2013,06,10,00,54,11.70
2013,06,10,00,55,11.70
2013,06,10,00,56,11.70
2013,06,10,00,57,11.70
2013,06,10,00,58,11.70
2013,06,10,00,59,11.80
2013,06,10,01,00,11.80
2013,06,10,01,01,11.80
2013,06,10,01,02,11.80
2013,06,10,01,03,11.80
2013,06,10,01,04,11.80
2013,06,10,01,05,11.80
2013,06,10,01,06,11.80
2013,06,10,01,07,11.80
2013,06,10,01,08,11.80
2013,06,10,01,09,11.80
2013,06,10,01,10,11.80
2013,06,10,01,11,11.80
2013,06,10,01,12,11.80
2013,06,10,01,13,11.80
2013,06,10,01,14,11.70
2013,06,10,01,15,11.70
2013,06,10,01,16,11.70
2013,06,10,01,17,11.70
2013,06,10,01,18,11.70
2013,06,10,01,19,11.70
2013,06,10,01,20,11.70
2013,06,10,01,21,11.70
2013,06,10,01,22,11.70
2013,06,10,01,23,11.70
2013,06,10,01,24,11.70
2013,06,10,01,25,11.70
2013,06,10,01,26,11.70
2013,06,10,01,27,11.70
2013,06,10,01,28,11.70
2013,06,10,01,29,11.70
2013,06,10,01,30,11.70
2013,06,10,01,31,11.70
2013,06,10,01,32,11.70
2013,06,10,01,33,11.70
2013,06,10,01,34,11.70
2013,06,10,01,35,11.60
2013,06,10,01,36,11.60
2013,06,10,01,37,11.60
2013,06,10,01,38,11.60
2013,06,10,01,39,11.60
2013,06,10,01,40,11.60
2013,06,10,01,41,11.60
2013,06,10,01,42,11.60
2013,06,10,01,43,11.50
2013,06,10,01,44,11.50
2013,06,10,01,45,11.50
2013,06,10,01,46,11.50
2013,06,10,01,47,11.50
2013,06,10,01,48,11.40
2013,06,10,01,49,11.40
2013,06,10,01,50,11.50
2013,06,10,01,51,11.50
2013,06,10,01,52,11.50
2013,06,10,01,53,11.50
2013,06,10,01,54,11.50
2013,06,10,01,55,11.50
2013,06,10,01,56,11.50
2013,06,10,01,57,11.50
2013,06,10,01,58,11.50
2013,06,10,01,59,11.60
2013,06,10,02,00,11.50
2013,06,10,02,01,11.50
2013,06,10,02,02,11.50
2013,06,10,02,03,11.50
2013,06,10,02,04,11.40
2013,06,10,02,05,11.40
2013,06,10,02,06,11.40
2013,06,10,02,07,11.40
2013,06,10,02,08,11.30
2013,06,10,02,09,11.30
2013,06,10,02,10,11.30
2013,06,10,02,11,11.30
2013,06,10,02,12,11.30
2013,06,10,02,13,11.30
2013,06,10,02,14,11.20
2013,06,10,02,15,11.20
2013,06,10,02,16,11.20
2013,06,10,02,17,11.20
2013,06,10,02,18,11.20
2013,06,10,02,19,11.20
2013,06,10,02,20,11.20
2013,06,10,02,21,11.20
2013,06,10,02,22,11.20
2013,06,10,02,23,11.10
2013,06,10,02,24,11.10
2013,06,10,02,25,11.10
2013,06,10,02,26,11.10
2013,06,10,02,27,11.00
2013,06,10,02,28,11.00
2013,06,10,02,29,11.00
2013,06,10,02,30,10.90
2013,06,10,02,31,10.90
2013,06,10,02,32,10.90
2013,06,10,02,33,10.90
2013,06,10,02,34,10.80
2013,06,10,02,35,10.80
2013,06,10,02,36,10.80
2013,06,10,02,37,10.80
2013,06,10,02,38,10.80
2013,06,10,02,39,10.80
2013,06,10,02,40,10.80
2013,06,10,02,41,10.80
2013,06,10,02,42,10.80
2013,06,10,02,43,10.80
2013,06,10,02,44,10.80
2013,06,10,02,45,10.80
2013,06,10,02,46,10.80
2013,06,10,02,47,10.80
2013,06,10,02,48,10.80
2013,06,10,02,49,10.80
2013,06,10,02,50,10.70
2013,06,10,02,51,10.70
2013,06,10,02,52,10.70
2013,06,10,02,53,10.70
2013,06,10,02,54,10.70
2013,06,10,02,55,10.70
2013,06,10,02,56,10.70
2013,06,10,02,57,10.70
2013,06,10,02,58,10.70
2013,06,10,02,59,10.60
2013,06,10,03,00,10.60
2013,06,10,03,01,10.60
2013,06,10,03,02,10.60
2013,06,10,03,03,10.60
2013,06,10,03,04,10.50
2013,06,10,03,05,10.50
2013,06,10,03,06,10.50
2013,06,10,03,07,10.40
2013,06,10,03,08,10.40
2013,06,10,03,09,10.40
2013,06,10,03,10,10.40
2013,06,10,03,11,10.40
2013,06,10,03,12,10.30
2013,06,10,03,13,10.30
2013,06,10,03,14,10.30
2013,06,10,03,15,10.30
2013,06,10,03,16,10.30
2013,06,10,03,17,10.30
2013,06,10,03,18,10.30
2013,06,10,03,19,10.30
2013,06,10,03,20,10.20
2013,06,10,03,21,10.20
2013,06,10,03,22,10.20
2013,06,10,03,23,10.30
2013,06,10,03,24,10.30
2013,06,10,03,25,10.30
2013,06,10,03,26,10.30
2013,06,10,03,27,10.30
2013,06,10,03,28,10.30
2013,06,10,03,29,10.30
2013,06,10,03,30,10.30
2013,06,10,03,31,10.30
2013,06,10,03,32,10.30
2013,06,10,03,33,10.20
2013,06,10,03,34,10.20
2013,06,10,03,35,10.20
2013,06,10,03,36,10.20
2013,06,10,03,37,10.20
2013,06,10,03,38,10.20
2013,06,10,03,39,10.20
2013,06,10,03,40,10.20
2013,06,10,03,41,10.20
2013,06,10,03,42,10.20
2013,06,10,03,43,10.20
2013,06,10,03,44,10.30
2013,06,10,03,45,10.30
2013,06,10,03,46,10.20
2013,06,10,03,47,10.20
2013,06,10,03,48,10.20
2013,06,10,03,49,10.20
2013,06,10,03,50,10.20
2013,06,10,03,51,10.20
2013,06,10,03,52,10.20
2013,06,10,03,53,10.20
2013,06,10,03,54,10.10
2013,06,10,03,55,10.10
2013,06,10,03,56,10.10
2013,06,10,03,57,10.10
2013,06,10,03,58,10.00
2013,06,10,03,59,10.00
2013,06,10,04,00,10.00
2013,06,10,04,01,9.90
2013,06,10,04,02,9.90
2013,06,10,04,03,9.90
2013,06,10,04,04,9.90
2013,06,10,04,05,9.80
2013,06,10,04,06,9.80
2013,06,10,04,07,9.80
2013,06,10,04,08,9.80
2013,06,10,04,09,9.80
2013,06,10,04,10,9.80
2013,06,10,04,11,9.80
2013,06,10,04,12,9.80
2013,06,10,04,13,9.80
2013,06,10,04,14,9.80
2013,06,10,04,15,9.80
2013,06,10,04,16,9.70
2013,06,10,04,17,9.70
2013,06,10,04,18,9.70
2013,06,10,04,19,9.70
2013,06,10,04,20,9.70
2013,06,10,04,21,9.70
2013,06,10,04,22,9.60
2013,06,10,04,23,9.60
2013,06,10,04,24,9.60
2013,06,10,04,25,9.60
2013,06,10,04,26,9.60
2013,06,10,04,27,9.60
2013,06,10,04,28,9.60
2013,06,10,04,29,9.60
2013,06,10,04,30,9.60
2013,06,10,04,31,9.60
2013,06,10,04,32,9.60
2013,06,10,04,33,9.60
2013,06,10,04,34,9.50
2013,06,10,04,35,9.50
2013,06,10,04,36,9.50
2013,06,10,04,37,9.50
2013,06,10,04,38,9.40
2013,06,10,04,39,9.40
2013,06,10,04,40,9.40
2013,06,10,04,41,9.40
2013,06,10,04,42,9.40
2013,06,10,04,43,9.30
2013,06,10,04,44,9.30
2013,06,10,04,45,9.30
2013,06,10,04,46,9.30
2013,06,10,04,47,9.20
2013,06,10,04,48,9.20
2013,06,10,04,49,9.20
2013,06,10,04,50,9.20
2013,06,10,04,51,9.20
2013,06,10,04,52,9.10
2013,06,10,04,53,9.10
2013,06,10,04,54,9.10
2013,06,10,04,55,9.10
2013,06,10,04,56,9.10
2013,06,10,04,57,9.10
2013,06,10,04,58,9.10
2013,06,10,04,59,9.10
2013,06,10,05,00,9.10
2013,06,10,05,01,9.10
2013,06,10,05,02,9.10
2013,06,10,05,03,9.10
2013,06,10,05,04,9.10
2013,06,10,05,05,9.10
2013,06,10,05,06,9.10
2013,06,10,05,07,9.10
2013,06,10,05,08,9.10
2013,06,10,05,09,9.10
2013,06,10,05,10,9.10
2013,06,10,05,11,9.10
2013,06,10,05,12,9.10
2013,06,10,05,13,9.10
2013,06,10,05,14,9.10
2013,06,10,05,15,9.10
2013,06,10,05,16,9.10
2013,06,10,05,17,9.10
2013,06,10,05,18,9.10
2013,06,10,05,19,9.10
2013,06,10,05,20,9.10
2013,06,10,05,21,9.10
2013,06,10,05,22,9.10
2013,06,10,05,23,9.10
2013,06,10,05,24,9.10
2013,06,10,05,25,9.00
2013,06,10,05,26,8.90
2013,06,10,05,27,8.90
2013,06,10,05,28,8.80
2013,06,10,05,29,8.80
2013,06,10,05,30,8.80
2013,06,10,05,31,8.70
2013,06,10,05,32,8.70
2013,06,10,05,33,8.70
2013,06,10,05,34,8.70
2013,06,10,05,35,8.70
2013,06,10,05,36,8.60
2013,06,10,05,37,8.60
2013,06,10,05,38,8.60
2013,06,10,05,39,8.60
2013,06,10,05,40,8.60
2013,06,10,05,41,8.60
2013,06,10,05,42,8.50
2013,06,10,05,43,8.50
2013,06,10,05,44,8.50
2013,06,10,05,45,8.50
2013,06,10,05,46,8.50
2013,06,10,05,47,8.50
2013,06,10,05,48,8.60
2013,06,10,05,49,8.60
2013,06,10,05,50,8.60
2013,06,10,05,51,8.60
2013,06,10,05,52,8.60
2013,06,10,05,53,8.70
2013,06,10,05,54,8.70
2013,06,10,05,55,8.70
2013,06,10,05,56,8.70
2013,06,10,05,57,8.80
2013,06,10,05,58,8.80
2013,06,10,05,59,8.80
2013,06,10,06,00,8.90
2013,06,10,06,01,8.90
2013,06,10,06,02,9.00
2013,06,10,06,03,9.10
2013,06,10,06,04,9.20
2013,06,10,06,05,9.20
2013,06,10,06,06,9.30
2013,06,10,06,07,9.40
2013,06,10,06,08,9.50
2013,06,10,06,09,9.60
2013,06,10,06,10,9.60
2013,06,10,06,11,9.70
2013,06,10,06,12,9.80
2013,06,10,06,13,9.80
2013,06,10,06,14,9.90
2013,06,10,06,15,10.00
2013,06,10,06,16,10.10
2013,06,10,06,17,10.10
2013,06,10,06,18,10.10
2013,06,10,06,19,10.20
2013,06,10,06,20,10.30
2013,06,10,06,21,10.30
2013,06,10,06,22,10.40
2013,06,10,06,23,10.50
2013,06,10,06,24,10.50
2013,06,10,06,25,10.60
2013,06,10,06,26,10.60
2013,06,10,06,27,10.70
2013,06,10,06,28,10.80
2013,06,10,06,29,10.80
2013,06,10,06,30,10.90
2013,06,10,06,31,11.00
2013,06,10,06,32,11.00
2013,06,10,06,33,11.10
2013,06,10,06,34,11.10
2013,06,10,06,35,11.20
2013,06,10,06,36,11.30
2013,06,10,06,37,11.30
2013,06,10,06,38,11.40
2013,06,10,06,39,11.50
2013,06,10,06,40,11.50
2013,06,10,06,41,11.60
2013,06,10,06,42,11.60
2013,06,10,06,43,11.60
2013,06,10,06,44,11.70
2013,06,10,06,45,11.70
2013,06,10,06,46,11.70
2013,06,10,06,47,11.80
2013,06,10,06,48,11.80
2013,06,10,06,49,11.80
2013,06,10,06,50,11.90
2013,06,10,06,51,11.90
2013,06,10,06,52,11.90
2013,06,10,06,53,11.90
2013,06,10,06,54,12.00
2013,06,10,06,55,12.00
2013,06,10,06,56,12.10
2013,06,10,06,57,12.10
2013,06,10,06,58,12.10
2013,06,10,06,59,12.10
2013,06,10,07,00,12.20
2013,06,10,07,01,12.20
2013,06,10,07,02,12.30
2013,06,10,07,03,12.30
2013,06,10,07,04,12.40
2013,06,10,07,05,12.40
2013,06,10,07,06,12.40
2013,06,10,07,07,12.50
2013,06,10,07,08,12.50
2013,06,10,07,09,12.50
2013,06,10,07,10,12.60
2013,06,10,07,11,12.70
2013,06,10,07,12,12.70
2013,06,10,07,13,12.80
2013,06,10,07,14,12.80
2013,06,10,07,15,12.80
2013,06,10,07,16,12.90
2013,06,10,07,17,12.90
2013,06,10,07,18,12.90
2013,06,10,07,19,12.90
2013,06,10,07,20,13.00
2013,06,10,07,21,13.00
2013,06,10,07,22,13.10
2013,06,10,07,23,13.10
2013,06,10,07,24,13.10
2013,06,10,07,25,13.10
2013,06,10,07,26,13.20
2013,06,10,07,27,13.20
2013,06,10,07,28,13.10
2013,06,10,07,29,13.00
2013,06,10,07,30,13.00
2013,06,10,07,31,13.00
2013,06,10,07,32,13.00
2013,06,10,07,33,13.00
2013,06,10,07,34,13.10
2013,06,10,07,35,13.10
2013,06,10,07,36,13.20
2013,06,10,07,37,13.30
2013,06,10,07,38,13.30
2013,06,10,07,39,13.40
2013,06,10,07,40,13.40
2013,06,10,07,41,13.50
2013,06,10,07,42,13.60
2013,06,10,07,43,13.60
2013,06,10,07,44,13.60
2013,06,10,07,45,13.70
2013,06,10,07,46,13.70
2013,06,10,07,47,13.70
2013,06,10,07,48,13.70
2013,06,10,07,49,13.70
2013,06,10,07,50,13.60
2013,06,10,07,51,13.60
2013,06,10,07,52,13.60
2013,06,10,07,53,13.50
2013,06,10,07,54,13.50
2013,06,10,07,55,13.50
2013,06,10,07,56,13.40
2013,06,10,07,57,13.40
2013,06,10,07,58,13.40
2013,06,10,07,59,13.40
2013,06,10,08,00,13.40
2013,06,10,08,01,13.40
2013,06,10,08,02,13.50
2013,06,10,08,03,13.50
2013,06,10,08,04,13.50
2013,06,10,08,05,13.40
2013,06,10,08,06,13.50
2013,06,10,08,07,13.50
2013,06,10,08,08,13.60
2013,06,10,08,09,13.60
2013,06,10,08,10,13.60
2013,06,10,08,11,13.60
2013,06,10,08,12,13.60
2013,06,10,08,13,13.60
2013,06,10,08,14,13.70
2013,06,10,08,15,13.60
2013,06,10,08,16,13.60
2013,06,10,08,17,13.60
2013,06,10,08,18,13.60
2013,06,10,08,19,13.70
2013,06,10,08,20,13.80
2013,06,10,08,21,13.80
2013,06,10,08,22,13.80
2013,06,10,08,23,13.90
2013,06,10,08,24,13.90
2013,06,10,08,25,13.90
2013,06,10,08,26,14.00
2013,06,10,08,27,14.00
2013,06,10,08,28,14.10
2013,06,10,08,29,14.10
2013,06,10,08,30,14.00
2013,06,10,08,31,14.00
2013,06,10,08,32,14.00
2013,06,10,08,33,14.00
2013,06,10,08,34,14.00
2013,06,10,08,35,14.10
2013,06,10,08,36,14.10
2013,06,10,08,37,14.00
2013,06,10,08,38,14.00
2013,06,10,08,39,13.90
2013,06,10,08,40,13.90
2013,06,10,08,41,13.90
2013,06,10,08,42,13.90
2013,06,10,08,43,13.90
2013,06,10,08,44,14.00
2013,06,10,08,45,14.00
2013,06,10,08,46,14.00
2013,06,10,08,47,14.00
2013,06,10,08,48,14.00
2013,06,10,08,49,14.00
2013,06,10,08,50,14.00
2013,06,10,08,51,14.00
2013,06,10,08,52,14.00
2013,06,10,08,53,13.90
2013,06,10,08,54,13.90
2013,06,10,08,55,13.80
2013,06,10,08,56,13.80
2013,06,10,08,57,13.80
2013,06,10,08,58,13.80
2013,06,10,08,59,13.90
2013,06,10,09,00,13.90
2013,06,10,09,01,13.80
2013,06,10,09,02,13.80
2013,06,10,09,03,13.80
2013,06,10,09,04,13.80
2013,06,10,09,05,13.70
2013,06,10,09,06,13.70
2013,06,10,09,07,13.70
2013,06,10,09,08,13.80
2013,06,10,09,09,13.80
2013,06,10,09,10,13.80
2013,06,10,09,11,13.70
2013,06,10,09,12,13.70
2013,06,10,09,13,13.70
2013,06,10,09,14,13.70
2013,06,10,09,15,13.70
2013,06,10,09,16,13.70
2013,06,10,09,17,13.70
2013,06,10,09,18,13.70
2013,06,10,09,19,13.70
2013,06,10,09,20,13.70
2013,06,10,09,21,13.70
2013,06,10,09,22,13.60
2013,06,10,09,23,13.60
2013,06,10,09,24,13.60
2013,06,10,09,25,13.60
2013,06,10,09,26,13.60
2013,06,10,09,27,13.60
2013,06,10,09,28,13.60
2013,06,10,09,29,13.60
2013,06,10,09,30,13.70
2013,06,10,09,31,13.70
2013,06,10,09,32,13.70
2013,06,10,09,33,13.70
2013,06,10,09,34,13.70
2013,06,10,09,35,13.80
2013,06,10,09,36,13.80
2013,06,10,09,37,13.80
2013,06,10,09,38,13.90
2013,06,10,09,39,14.00
2013,06,10,09,40,14.00
2013,06,10,09,41,14.10
2013,06,10,09,42,14.10
2013,06,10,09,43,14.10
2013,06,10,09,44,14.00
2013,06,10,09,45,13.90
2013,06,10,09,46,13.90
2013,06,10,09,47,14.00
2013,06,10,09,48,14.00
2013,06,10,09,49,14.00
2013,06,10,09,50,14.00
2013,06,10,09,51,14.00
2013,06,10,09,52,13.90
2013,06,10,09,53,13.80
2013,06,10,09,54,13.90
2013,06,10,09,55,13.90
2013,06,10,09,56,14.00
2013,06,10,09,57,14.10
2013,06,10,09,58,14.10
2013,06,10,09,59,14.10
2013,06,10,10,00,14.10
2013,06,10,10,01,14.00
2013,06,10,10,02,14.00
2013,06,10,10,03,14.00
2013,06,10,10,04,13.90
2013,06,10,10,05,13.90
2013,06,10,10,06,13.90
2013,06,10,10,07,14.00
2013,06,10,10,08,14.10
2013,06,10,10,09,14.10
2013,06,10,10,10,14.20
2013,06,10,10,11,14.30
2013,06,10,10,12,14.30
2013,06,10,10,13,14.40
2013,06,10,10,14,14.50
2013,06,10,10,15,14.60
2013,06,10,10,16,14.70
2013,06,10,10,17,14.70
2013,06,10,10,18,14.70
2013,06,10,10,19,14.70
2013,06,10,10,20,14.70
2013,06,10,10,21,14.80
2013,06,10,10,22,14.80
2013,06,10,10,23,14.80
2013,06,10,10,24,14.80
2013,06,10,10,25,14.70
2013,06,10,10,26,14.70
2013,06,10,10,27,14.60
2013,06,10,10,28,14.60
2013,06,10,10,29,14.60
2013,06,10,10,30,14.60
2013,06,10,10,31,14.70
2013,06,10,10,32,14.80
2013,06,10,10,33,14.80
2013,06,10,10,34,14.80
2013,06,10,10,35,14.80
2013,06,10,10,36,14.90
2013,06,10,10,37,14.90
2013,06,10,10,38,14.90
2013,06,10,10,39,15.00
2013,06,10,10,40,15.00
2013,06,10,10,41,14.90
2013,06,10,10,42,14.90
2013,06,10,10,43,14.80
2013,06,10,10,44,14.80
2013,06,10,10,45,14.80
2013,06,10,10,46,14.80
2013,06,10,10,47,14.80
2013,06,10,10,48,14.80
2013,06,10,10,49,14.80
2013,06,10,10,50,14.90
2013,06,10,10,51,14.90
2013,06,10,10,52,15.00
2013,06,10,10,53,15.00
2013,06,10,10,54,15.00
2013,06,10,10,55,14.90
2013,06,10,10,56,14.80
2013,06,10,10,57,14.90
2013,06,10,10,58,14.90
2013,06,10,10,59,14.90
2013,06,10,11,00,14.90
2013,06,10,11,01,14.90
2013,06,10,11,02,14.90
2013,06,10,11,03,15.00
2013,06,10,11,04,15.00
2013,06,10,11,05,15.00
2013,06,10,11,06,15.10
2013,06,10,11,07,15.20
2013,06,10,11,08,15.30
2013,06,10,11,09,15.30
2013,06,10,11,10,15.40
2013,06,10,11,11,15.40
2013,06,10,11,12,15.30
2013,06,10,11,13,15.20
2013,06,10,11,14,15.10
2013,06,10,11,15,15.00
2013,06,10,11,16,15.00
2013,06,10,11,17,15.10
2013,06,10,11,18,15.20
2013,06,10,11,19,15.20
2013,06,10,11,20,15.30
2013,06,10,11,21,15.30
2013,06,10,11,22,15.40
2013,06,10,11,23,15.40
2013,06,10,11,24,15.40
2013,06,10,11,25,15.40
2013,06,10,11,26,15.50
2013,06,10,11,27,15.50
2013,06,10,11,28,15.50
2013,06,10,11,29,15.50
2013,06,10,11,30,15.50
2013,06,10,11,31,15.50
2013,06,10,11,32,15.60
2013,06,10,11,33,15.60
2013,06,10,11,34,15.60
2013,06,10,11,35,15.70
2013,06,10,11,36,15.90
2013,06,10,11,37,16.10
2013,06,10,11,38,16.20
2013,06,10,11,39,16.30
2013,06,10,11,40,16.30
2013,06,10,11,41,16.30
2013,06,10,11,42,16.30
2013,06,10,11,43,16.20
2013,06,10,11,44,16.10
2013,06,10,11,45,16.00
2013,06,10,11,46,15.90
2013,06,10,11,47,15.80
2013,06,10,11,48,15.70
2013,06,10,11,49,15.60
2013,06,10,11,50,15.50
2013,06,10,11,51,15.50
2013,06,10,11,52,15.50
2013,06,10,11,53,15.40
2013,06,10,11,54,15.30
2013,06,10,11,55,15.30
2013,06,10,11,56,15.20
2013,06,10,11,57,15.20
2013,06,10,11,58,15.20
2013,06,10,11,59,15.20
2013,06,10,12,00,15.20
2013,06,10,12,01,15.30
2013,06,10,12,02,15.30
2013,06,10,12,03,15.30
2013,06,10,12,04,15.30
2013,06,10,12,05,15.30
2013,06,10,12,06,15.30
2013,06,10,12,07,15.40
2013,06,10,12,08,15.30
2013,06,10,12,09,15.30
2013,06,10,12,10,15.30
2013,06,10,12,11,15.30
2013,06,10,12,12,15.30
2013,06,10,12,13,15.30
2013,06,10,12,14,15.40
2013,06,10,12,15,15.50
2013,06,10,12,16,15.60
2013,06,10,12,17,15.80
2013,06,10,12,18,15.90
2013,06,10,12,19,16.00
2013,06,10,12,20,16.10
2013,06,10,12,21,16.20
2013,06,10,12,22,16.20
2013,06,10,12,23,16.30
2013,06,10,12,24,16.40
2013,06,10,12,25,16.50
2013,06,10,12,26,16.50
2013,06,10,12,27,16.60
2013,06,10,12,28,16.50
2013,06,10,12,29,16.50
2013,06,10,12,30,16.40
2013,06,10,12,31,16.20
2013,06,10,12,32,16.10
2013,06,10,12,33,16.10
2013,06,10,12,34,16.00
2013,06,10,12,35,15.90
2013,06,10,12,36,15.80
2013,06,10,12,37,15.70
2013,06,10,12,38,15.70
2013,06,10,12,39,15.70
2013,06,10,12,40,15.80
2013,06,10,12,41,15.90
2013,06,10,12,42,16.00
2013,06,10,12,43,16.10
2013,06,10,12,44,16.20
2013,06,10,12,45,16.30
2013,06,10,12,46,16.30
2013,06,10,12,47,16.30
2013,06,10,12,48,16.40
2013,06,10,12,49,16.30
2013,06,10,12,50,16.30
2013,06,10,12,51,16.30
2013,06,10,12,52,16.40
2013,06,10,12,53,16.50
2013,06,10,12,54,16.60
2013,06,10,12,55,16.70
2013,06,10,12,56,16.70
2013,06,10,12,57,16.70
2013,06,10,12,58,16.70
2013,06,10,12,59,16.70
2013,06,10,13,00,16.70
2013,06,10,13,01,16.80
2013,06,10,13,02,16.80
2013,06,10,13,03,16.80
2013,06,10,13,04,16.80
2013,06,10,13,05,16.80
2013,06,10,13,06,16.80
2013,06,10,13,07,16.80
2013,06,10,13,08,16.80
2013,06,10,13,09,16.80
2013,06,10,13,10,16.80
2013,06,10,13,11,16.90
2013,06,10,13,12,16.90
2013,06,10,13,13,17.00
2013,06,10,13,14,17.00
2013,06,10,13,15,17.00
2013,06,10,13,16,17.10
2013,06,10,13,17,17.10
2013,06,10,13,18,17.10
2013,06,10,13,19,17.10
2013,06,10,13,20,17.10
2013,06,10,13,21,17.20
2013,06,10,13,22,17.30
2013,06,10,13,23,17.30
2013,06,10,13,24,17.30
2013,06,10,13,25,17.30
2013,06,10,13,26,17.30
2013,06,10,13,27,17.30
2013,06,10,13,28,17.30
2013,06,10,13,29,17.30
2013,06,10,13,30,17.30
2013,06,10,13,31,17.30
2013,06,10,13,32,17.30
2013,06,10,13,33,17.20
2013,06,10,13,34,17.10
2013,06,10,13,35,17.00
2013,06,10,13,36,16.90
2013,06,10,13,37,16.90
2013,06,10,13,38,16.80
2013,06,10,13,39,16.80
2013,06,10,13,40,16.90
2013,06,10,13,41,16.90
2013,06,10,13,42,16.90
2013,06,10,13,43,17.00
2013,06,10,13,44,17.10
2013,06,10,13,45,17.20
2013,06,10,13,46,17.40
2013,06,10,13,47,17.50
2013,06,10,13,48,17.70
2013,06,10,13,49,17.70
2013,06,10,13,50,17.70
2013,06,10,13,51,17.70
2013,06,10,13,52,17.70
2013,06,10,13,53,17.70
2013,06,10,13,54,17.70
2013,06,10,13,55,17.60
2013,06,10,13,56,17.60
2013,06,10,13,57,17.50
2013,06,10,13,58,17.50
2013,06,10,13,59,17.60
2013,06,10,14,00,17.60
2013,06,10,14,01,17.70
2013,06,10,14,02,17.80
2013,06,10,14,03,17.70
2013,06,10,14,04,17.70
2013,06,10,14,05,17.70
2013,06,10,14,06,17.70
2013,06,10,14,07,17.80
2013,06,10,14,08,17.80
2013,06,10,14,09,17.90
2013,06,10,14,10,18.00
2013,06,10,14,11,18.10
2013,06,10,14,12,18.20
2013,06,10,14,13,18.20
2013,06,10,14,14,18.20
2013,06,10,14,15,18.10
2013,06,10,14,16,18.10
2013,06,10,14,17,18.10
2013,06,10,14,18,18.10
2013,06,10,14,19,18.10
2013,06,10,14,20,18.00
2013,06,10,14,21,17.90
2013,06,10,14,22,17.80
2013,06,10,14,23,17.80
2013,06,10,14,24,17.70
2013,06,10,14,25,17.70
2013,06,10,14,26,17.80
2013,06,10,14,27,17.80
2013,06,10,14,28,17.80
2013,06,10,14,29,17.90
2013,06,10,14,30,18.00
2013,06,10,14,31,18.00
2013,06,10,14,32,18.00
2013,06,10,14,33,18.10
2013,06,10,14,34,18.10
2013,06,10,14,35,18.30
2013,06,10,14,36,18.30
2013,06,10,14,37,18.30
2013,06,10,14,38,18.30
2013,06,10,14,39,18.20
2013,06,10,14,40,18.20
2013,06,10,14,41,18.00
2013,06,10,14,42,17.90
2013,06,10,14,43,17.70
2013,06,10,14,44,17.60
2013,06,10,14,45,17.60
2013,06,10,14,46,17.60
2013,06,10,14,47,17.60
2013,06,10,14,48,17.60
2013,06,10,14,49,17.70
2013,06,10,14,50,17.80
2013,06,10,14,51,17.90
2013,06,10,14,52,18.00
2013,06,10,14,53,18.20
2013,06,10,14,54,18.30
2013,06,10,14,55,18.40
2013,06,10,14,56,18.50
2013,06,10,14,57,18.60
2013,06,10,14,58,18.60
2013,06,10,14,59,18.70
2013,06,10,15,00,18.70
2013,06,10,15,01,18.70
2013,06,10,15,02,18.70
2013,06,10,15,03,18.70
2013,06,10,15,04,18.70
2013,06,10,15,05,18.80
2013,06,10,15,06,18.90
2013,06,10,15,07,19.00
2013,06,10,15,08,19.20
2013,06,10,15,09,19.30
2013,06,10,15,10,19.40
2013,06,10,15,11,19.50
2013,06,10,15,12,19.50
2013,06,10,15,13,19.30
2013,06,10,15,14,19.20
2013,06,10,15,15,19.10
2013,06,10,15,16,19.10
2013,06,10,15,17,19.10
2013,06,10,15,18,19.10
2013,06,10,15,19,19.20
2013,06,10,15,20,19.30
2013,06,10,15,21,19.30
2013,06,10,15,22,19.30
2013,06,10,15,23,19.30
2013,06,10,15,24,19.20
2013,06,10,15,25,19.20
2013,06,10,15,26,19.10
2013,06,10,15,27,19.10
2013,06,10,15,28,19.20
2013,06,10,15,29,19.20
2013,06,10,15,30,19.20
2013,06,10,15,31,19.20
2013,06,10,15,32,19.20
2013,06,10,15,33,19.20
2013,06,10,15,34,19.10
2013,06,10,15,35,19.10
2013,06,10,15,36,19.10
2013,06,10,15,37,19.10
2013,06,10,15,38,19.10
2013,06,10,15,39,19.20
2013,06,10,15,40,19.10
2013,06,10,15,41,19.10
2013,06,10,15,42,19.10
2013,06,10,15,43,19.00
2013,06,10,15,44,19.10
2013,06,10,15,45,19.10
2013,06,10,15,46,19.20
2013,06,10,15,47,19.30
2013,06,10,15,48,19.40
2013,06,10,15,49,19.40
2013,06,10,15,50,19.40
2013,06,10,15,51,19.40
2013,06,10,15,52,19.40
2013,06,10,15,53,19.30
2013,06,10,15,54,19.30
2013,06,10,15,55,19.30
2013,06,10,15,56,19.40
2013,06,10,15,57,19.50
2013,06,10,15,58,19.60
2013,06,10,15,59,19.60
2013,06,10,16,00,19.50
2013,06,10,16,01,19.50
2013,06,10,16,02,19.40
2013,06,10,16,03,19.40
2013,06,10,16,04,19.30
2013,06,10,16,05,19.30
2013,06,10,16,06,19.20
2013,06,10,16,07,19.20
2013,06,10,16,08,19.10
2013,06,10,16,09,19.00
2013,06,10,16,10,18.90
2013,06,10,16,11,18.90
2013,06,10,16,12,18.80
2013,06,10,16,13,18.80
2013,06,10,16,14,18.70
2013,06,10,16,15,18.60
2013,06,10,16,16,18.50
2013,06,10,16,17,18.40
2013,06,10,16,18,18.40
2013,06,10,16,19,18.40
2013,06,10,16,20,18.40
2013,06,10,16,21,18.50
2013,06,10,16,22,18.60
2013,06,10,16,23,18.70
2013,06,10,16,24,18.80
2013,06,10,16,25,18.80
2013,06,10,16,26,18.90
2013,06,10,16,27,18.90
2013,06,10,16,28,19.00
2013,06,10,16,29,19.10
2013,06,10,16,30,19.20
2013,06,10,16,31,19.20
2013,06,10,16,32,19.30
2013,06,10,16,33,19.30
2013,06,10,16,34,19.30
2013,06,10,16,35,19.30
2013,06,10,16,36,19.30
2013,06,10,16,37,19.30
2013,06,10,16,38,19.30
2013,06,10,16,39,19.30
2013,06,10,16,40,19.20
2013,06,10,16,41,19.20
2013,06,10,16,42,19.20
2013,06,10,16,43,19.10
2013,06,10,16,44,19.10
2013,06,10,16,45,19.10
2013,06,10,16,46,19.10
2013,06,10,16,47,19.20
2013,06,10,16,48,19.20
2013,06,10,16,49,19.30
2013,06,10,16,50,19.30
2013,06,10,16,51,19.40
2013,06,10,16,52,19.40
2013,06,10,16,53,19.40
2013,06,10,16,54,19.30
2013,06,10,16,55,19.30
2013,06,10,16,56,19.30
2013,06,10,16,57,19.30
2013,06,10,16,58,19.40
2013,06,10,16,59,19.40
2013,06,10,17,00,19.40
2013,06,10,17,01,19.50
2013,06,10,17,02,19.50
2013,06,10,17,03,19.50
2013,06,10,17,04,19.60
2013,06,10,17,05,19.60
2013,06,10,17,06,19.60
2013,06,10,17,07,19.60
2013,06,10,17,08,19.60
2013,06,10,17,09,19.70
2013,06,10,17,10,19.70
2013,06,10,17,11,19.70
2013,06,10,17,12,19.70
2013,06,10,17,13,19.70
2013,06,10,17,14,19.60
2013,06,10,17,15,19.60
2013,06,10,17,16,19.60
2013,06,10,17,17,19.70
2013,06,10,17,18,19.70
2013,06,10,17,19,19.70
2013,06,10,17,20,19.70
2013,06,10,17,21,19.80
2013,06,10,17,22,19.80
2013,06,10,17,23,19.80
2013,06,10,17,24,19.80
2013,06,10,17,25,19.80